• In Kazakhstan
  • List of Countries
  • For 7 days
  • Water Temperature
  • Satellite Maps
  • Weather Map
  • News
  • Weather Widgets
  • user-avatar
    Login

    Hourly Weather Laksau

    Today, 23 November, Thursday

    Time Temperature Precipitation Wind Pressure Humidity
    00:00 +15°C° 0 mm 2 mps 704 mmHg 76%
    01:00 +15°C° 0 mm 2 mps 704 mmHg 76%
    02:00 +14°C° 0 mm 2 mps 704 mmHg 76%
    03:00 +14°C° 0 mm 2 mps 704 mmHg 76%
    04:00 +14°C° 0 mm 2 mps 704 mmHg 76%
    05:00 +14°C° 0 mm 2 mps 704 mmHg 76%
    06:00 +14°C° 0 mm 2 mps 704 mmHg 75%
    07:00 +14°C° 0 mm 2 mps 705 mmHg 75%
    08:00 +15°C° 0 mm 2 mps 705 mmHg 70%
    09:00 +17°C° 0 mm 2 mps 706 mmHg 65%
    10:00 +18°C° 0 mm 3 mps 706 mmHg 60%
    11:00 +19°C° 0 mm 3 mps 706 mmHg 58%
    12:00 +19°C° 0 mm 3 mps 706 mmHg 56%
    13:00 +23°C° 0 mm 1 mps 705 mmHg 60%
    14:00 +22°C° 0 mm 1 mps 705 mmHg 63%
    15:00 +19°C° 0 mm 2 mps 704 mmHg 66%
    16:00 +18°C° 0 mm 2 mps 704 mmHg 69%
    17:00 +17°C° 0 mm 2 mps 704 mmHg 71%
    18:00 +16°C° 0 mm 2 mps 704 mmHg 73%
    19:00 +15°C° 0 mm 2 mps 705 mmHg 75%
    20:00 +14°C° 0 mm 2 mps 705 mmHg 74%
    21:00 +14°C° 0 mm 2 mps 705 mmHg 73%
    22:00 +14°C° 0 mm 2 mps 706 mmHg 72%
    23:00 +13°C° 0 mm 2 mps 706 mmHg 72%

    Tomorrow, 24 November, Friday

    Time Temperature Precipitation Wind Pressure Humidity
    00:00 +13°C° 0 mm 2 mps 705 mmHg 72%
    01:00 +13°C° 0 mm 2 mps 705 mmHg 72%
    02:00 +12°C° 0 mm 2 mps 705 mmHg 72%
    03:00 +12°C° 0 mm 2 mps 705 mmHg 73%
    04:00 +12°C° 0 mm 2 mps 705 mmHg 73%
    05:00 +12°C° 0 mm 2 mps 705 mmHg 73%
    06:00 +13°C° 0 mm 2 mps 706 mmHg 73%
    07:00 +13°C° 0 mm 2 mps 706 mmHg 74%
    08:00 +14°C° 0 mm 2 mps 706 mmHg 70%
    09:00 +15°C° 0 mm 2 mps 707 mmHg 67%
    10:00 +17°C° 0 mm 2 mps 707 mmHg 63%
    11:00 +17°C° 0 mm 2 mps 707 mmHg 62%
    12:00 +18°C° 0 mm 2 mps 707 mmHg 62%
    13:00 +19°C° 0 mm 2 mps 706 mmHg 61%
    14:00 +18°C° 0 mm 2 mps 706 mmHg 64%
    15:00 +18°C° 0 mm 2 mps 705 mmHg 67%
    16:00 +17°C° 0 mm 2 mps 705 mmHg 70%
    17:00 +16°C° 0 mm 2 mps 705 mmHg 74%
    18:00 +15°C° 0 mm 2 mps 705 mmHg 78%
    19:00 +14°C° 0 mm 2 mps 706 mmHg 82%
    20:00 +14°C° 0 mm 2 mps 706 mmHg 83%
    21:00 +13°C° 0 mm 2 mps 706 mmHg 84%
    22:00 +13°C° 0 mm 2 mps 706 mmHg 85%
    23:00 +13°C° 0 mm 2 mps 706 mmHg 86%

    Day after tomorrow, 25 November, Saturday

    Time Temperature Precipitation Wind Pressure Humidity
    00:00 +13°C° 0 mm 2 mps 706 mmHg 86%
    01:00 +14°C° 0 mm 2 mps 706 mmHg 86%
    02:00 +14°C° 0 mm 2 mps 705 mmHg 87%
    03:00 +14°C° 0 mm 1 mps 705 mmHg 87%
    04:00 +14°C° 0 mm 1 mps 705 mmHg 88%
    05:00 +14°C° 0 mm 1 mps 705 mmHg 87%
    06:00 +14°C° 0 mm 1 mps 705 mmHg 87%
    07:00 +14°C° 0 mm 1 mps 706 mmHg 86%
    08:00 +17°C° 0 mm 2 mps 706 mmHg 80%
    09:00 +19°C° 0 mm 2 mps 707 mmHg 73%
    10:00 +21°C° 0 mm 2 mps 708 mmHg 66%
    11:00 +23°C° 0 mm 2 mps 707 mmHg 64%
    12:00 +24°C° 0 mm 2 mps 706 mmHg 61%
    13:00 +25°C° 0 mm 2 mps 706 mmHg 59%
    14:00 +24°C° 0 mm 2 mps 705 mmHg 62%
    15:00 +24°C° 0 mm 2 mps 705 mmHg 64%
    16:00 +23°C° 0 mm 2 mps 704 mmHg 67%
    17:00 +21°C° 0 mm 2 mps 705 mmHg 73%
    18:00 +19°C° 0 mm 2 mps 705 mmHg 79%
    19:00 +17°C° 0 mm 2 mps 705 mmHg 85%
    20:00 +17°C° 0 mm 2 mps 706 mmHg 86%
    21:00 +17°C° 0 mm 2 mps 706 mmHg 87%
    22:00 +17°C° 0 mm 2 mps 706 mmHg 88%
    23:00 +17°C° 0 mm 2 mps 706 mmHg 89%

    26 November, Sunday

    Time Temperature Precipitation Wind Pressure Humidity
    00:00 +17°C° 0 mm 2 mps 706 mmHg 89%
    01:00 +16°C° 0 mm 2 mps 705 mmHg 90%
    02:00 +16°C° 0 mm 2 mps 705 mmHg 90%
    03:00 +16°C° 0 mm 2 mps 705 mmHg 90%
    04:00 +16°C° 0 mm 2 mps 705 mmHg 90%
    05:00 +16°C° 0 mm 2 mps 705 mmHg 90%
    06:00 +17°C° 0 mm 2 mps 705 mmHg 89%
    07:00 +17°C° 0 mm 2 mps 706 mmHg 88%
    08:00 +18°C° 0 mm 2 mps 706 mmHg 83%
    09:00 +20°C° 0 mm 2 mps 707 mmHg 77%
    10:00 +21°C° 0 mm 2 mps 707 mmHg 72%
    11:00 +23°C° 0 mm 2 mps 707 mmHg 69%
    12:00 +24°C° 0 mm 2 mps 706 mmHg 66%
    13:00 +24°C° 0 mm 2 mps 705 mmHg 63%
    14:00 +24°C° 0 mm 2 mps 705 mmHg 66%
    15:00 +23°C° 0 mm 2 mps 704 mmHg 68%
    16:00 +21°C° 0 mm 2 mps 704 mmHg 70%
    17:00 +20°C° 0 mm 2 mps 704 mmHg 75%
    18:00 +19°C° 0 mm 2 mps 704 mmHg 80%
    19:00 +18°C° 0 mm 2 mps 705 mmHg 85%
    20:00 +17°C° 0 mm 2 mps 705 mmHg 86%
    21:00 +17°C° 0 mm 2 mps 705 mmHg 87%
    22:00 +17°C° 0 mm 2 mps 705 mmHg 88%
    23:00 +18°C° 0 mm 1 mps 705 mmHg 88%

    27 November, Monday

    Time Temperature Precipitation Wind Pressure Humidity
    00:00 +18°C° 0 mm 1 mps 705 mmHg 89%
    01:00 +18°C° 0 mm 1 mps 704 mmHg 89%
    02:00 +18°C° 0 mm 1 mps 704 mmHg 90%
    03:00 +18°C° 0 mm 1 mps 704 mmHg 91%
    04:00 +18°C° 0 mm 1 mps 703 mmHg 92%
    05:00 +18°C° 0 mm 1 mps 704 mmHg 91%
    06:00 +18°C° 0 mm 1 mps 704 mmHg 91%
    07:00 +19°C° 0 mm 1 mps 705 mmHg 90%
    08:00 +20°C° 0 mm 1 mps 705 mmHg 83%
    09:00 +22°C° 0 mm 1 mps 705 mmHg 77%
    10:00 +24°C° 0 mm 2 mps 706 mmHg 70%
    11:00 +25°C° 0 mm 2 mps 705 mmHg 67%
    12:00 +26°C° 0 mm 2 mps 704 mmHg 64%
    13:00 +27°C° 0 mm 2 mps 704 mmHg 61%
    14:00 +26°C° 0 mm 2 mps 703 mmHg 64%
    15:00 +26°C° 0 mm 2 mps 703 mmHg 67%
    16:00 +25°C° 0 mm 1 mps 702 mmHg 70%
    17:00 +23°C° 0 mm 1 mps 702 mmHg 76%
    18:00 +22°C° 0 mm 1 mps 703 mmHg 82%
    19:00 +20°C° 0 mm 1 mps 703 mmHg 88%
    20:00 +20°C° 0 mm 1 mps 703 mmHg 90%
    21:00 +20°C° 0 mm 1 mps 703 mmHg 91%
    22:00 +19°C° 0 mm 1 mps 703 mmHg 92%
    23:00 +19°C° 0 mm 1 mps 703 mmHg 93%

    28 November, Tuesday

    Time Temperature Precipitation Wind Pressure Humidity
    00:00 +19°C° 0 mm 1 mps 703 mmHg 93%
    01:00 +19°C° 0 mm 1 mps 703 mmHg 94%
    02:00 +19°C° 0 mm 1 mps 702 mmHg 94%
    03:00 +19°C° 0 mm 1 mps 702 mmHg 95%
    04:00 +19°C° 0 mm 1 mps 702 mmHg 95%
    05:00 +19°C° 0 mm 1 mps 703 mmHg 94%
    06:00 +20°C° 0 mm 1 mps 703 mmHg 93%
    07:00 +20°C° 0 mm 1 mps 703 mmHg 92%
    08:00 +22°C° 0 mm 1 mps 704 mmHg 84%
    09:00 +24°C° 0 mm 1 mps 704 mmHg 75%
    10:00 +26°C° 0 mm 1 mps 705 mmHg 67%
    11:00 +27°C° 0 mm 2 mps 704 mmHg 66%
    12:00 +27°C° 0 mm 2 mps 704 mmHg 64%
    13:00 +28°C° 0 mm 2 mps 703 mmHg 62%
    14:00 +27°C° 0.1 mm 2 mps 703 mmHg 65%
    15:00 +27°C° 0.1 mm 2 mps 702 mmHg 69%
    16:00 +26°C° 0.1 mm 2 mps 702 mmHg 72%
    17:00 +25°C° 0 mm 1 mps 702 mmHg 78%
    18:00 +23°C° 0 mm 1 mps 703 mmHg 84%
    19:00 +22°C° 0 mm 1 mps 703 mmHg 90%
    20:00 +22°C° 0 mm 1 mps 703 mmHg 91%
    21:00 +21°C° 0 mm 1 mps 703 mmHg 92%
    22:00 +21°C° 0 mm 1 mps 704 mmHg 93%
    23:00 +21°C° 0 mm 1 mps 703 mmHg 93%
    Show more